Miscellaneous Local Product
Issued by NWS Hastings, NE

Home | Current Version | Previous Version | Graphics & Text | Print | Product List | Glossary On
Versions: 1 2 3 4 5 6 7 8 9 10 11 12 13 14 15 16 17 18 19 20 21 22 23 24 25 26 27 28 29 30 31 32 33 34 35 36 37 38 39 40 41 42 43 44 45 46 47 48 49 50
612
AXUS43 KGID 100202
MISGRI

GID CWA HOURLY WEATHER ROUNDUP
NATIONAL WEATHER SERVICE HASTINGS NE
800 PM CST SAT DEC 09 2017

NOTE: "FAIR" INDICATES FEW OR NO CLOUDS BELOW 12,000 FEET WITH NO
SIGNIFICANT WEATHER AND/OR OBSTRUCTIONS TO VISIBILITY.

...SOUTH CENTRAL NEBRASKA...

CITY           SKY/WX    TMP DP  RH WIND       PRES   REMARKS
GRAND ISLAND   CLOUDY    32  21  64 SW8       30.13F WCI  25
KEARNEY        CLOUDY    37  17  44 SW8       30.14F WCI  31
HASTINGS       CLOUDY    33  18  53 SW6       30.14F WCI  28
ORD            CLOUDY    32  18  56 S3        30.09F
YORK           CLOUDY    27  19  74 SW8       30.13S WCI  18
AURORA         CLOUDY    30  19  64 SW10      30.12F WCI  21
LEXINGTON      CLOUDY    33  14  45 W9        30.15S WCI  25
HOLDREGE       CLOUDY    38  19  45 W7        30.15F WCI  33
HEBRON         CLOUDY    27  20  75 SW3       30.17S

...NEBRASKA PANHANDLE...

CITY           SKY/WX    TMP DP  RH WIND       PRES   REMARKS
CHADRON        CLEAR     36  14  40 W7        30.25R WCI  30
ALLIANCE       CLOUDY    35  12  38 W14       30.24R WCI  26
SCOTTSBLUFF    CLOUDY    41  14  33 W16       30.30R
SIDNEY         CLEAR     38  11  32 W14       30.30R WCI  30

...WESTERN AND NORTH CENTRAL NEBRASKA...

CITY           SKY/WX    TMP DP  RH WIND       PRES   REMARKS
VALENTINE      CLEAR     38  22  52 W10       30.10R WCI  31
AINSWORTH      CLEAR     39  24  53 W13       30.09R WCI  32
ONEILL         CLOUDY    33  24  68 SW8       30.05F WCI  26
BROKEN BOW     CLEAR     34  15  46 W8        30.11F WCI  27
IMPERIAL       CLEAR     44   7  21 W15       30.24S
NORTH PLATTE   CLEAR     29  15  56 NW8       30.18R WCI  21
MCCOOK         CLEAR     35  13  40 W9        30.20S WCI  28

...EASTERN NEBRASKA...

CITY           SKY/WX    TMP DP  RH WIND       PRES   REMARKS
NORFOLK        CLOUDY    31  22  69 S9        30.06F WCI  23
SO SIOUX CITY  CLOUDY    21  17  84 SE6       30.09F WCI  13
TEKAMAH        CLOUDY    18  11  74 S5        30.12F WCI  11
COLUMBUS       CLOUDY    24  17  74 SW3       30.12F
ALBION         CLOUDY    31  20  64 CALM      30.09F
OMAHA EPPLEY   CLOUDY    24  17  74 SE7       30.14F WCI  16
OFFUTT AFB     CLOUDY    18  13  82 S3        30.13F
MILLARD        CLOUDY    27  21  77 CALM      30.14F
LINCOLN        CLOUDY    27  19  72 S3        30.16F
NEBRASKA CITY  CLOUDY    25  19  78 SW7       30.15F WCI  17
BEATRICE       CLOUDY    26  19  73 S8        30.16F WCI  18
FALLS CITY     CLOUDY    28  18  66 S7        30.18F WCI  21

...NORTHERN KANSAS...

CITY           SKY/WX    TMP DP  RH WIND       PRES   REMARKS
GOODLAND       CLEAR     39   6  25 NW13      30.27R WCI  31
HILL CITY      CLEAR     35  16  45 W8        30.23S WCI  29
NORTON         CLEAR     34  10  37 SW8       30.19S WCI  27
PHILLIPSBURG   CLEAR     36  16  44 SW10      30.19F WCI  28
SMITH CENTER   CLEAR     32  18  55 SW7       30.19F WCI  26
HAYS           CLOUDY    36  15  42 W7        30.23S WCI  30
RUSSELL        CLOUDY    33  17  51 SW9       30.21S WCI  25
CONCORDIA      CLOUDY    35  23  61 SW10      30.19S WCI  27
SALINA         CLEAR     30  22  72 S7        30.23S WCI  23
TOPEKA         CLOUDY    29  19  66 CALM      30.23R



USA.gov is the U.S. government's official web portal to all federal, state and local government web resources and services.